Hourly Weather Igls

Today, 9 August, Sunday

Time Temperature Precipitation Wind Pressure Humidity
00:00 +18°C° 0 mm 1 mps 689 mmHg 92%
01:00 +18°C° 0 mm 1 mps 688 mmHg 92%
02:00 +18°C° 0 mm 1 mps 688 mmHg 91%
03:00 +16°C° 0 mm 1 mps 688 mmHg 91%
04:00 +16°C° 0 mm 1 mps 688 mmHg 91%
05:00 +19°C° 0 mm 1 mps 688 mmHg 87%
06:00 +18°C° 0 mm 0 mps 689 mmHg 83%
07:00 +20°C° 0 mm 0 mps 689 mmHg 79%
08:00 +24°C° 0 mm 1 mps 689 mmHg 70%
09:00 +26°C° 0 mm 1 mps 689 mmHg 62%
10:00 +28°C° 0 mm 1 mps 690 mmHg 53%
11:00 +29°C° 0 mm 1 mps 689 mmHg 48%
12:00 +29°C° 0 mm 2 mps 689 mmHg 44%
13:00 +30°C° 0 mm 2 mps 689 mmHg 39%
14:00 +30°C° 0 mm 2 mps 689 mmHg 41%
15:00 +29°C° 0 mm 2 mps 688 mmHg 43%
16:00 +29°C° 0 mm 2 mps 688 mmHg 45%
17:00 +27°C° 0.1 mm 2 mps 688 mmHg 57%
18:00 +25°C° 0.1 mm 1 mps 687 mmHg 69%
19:00 +23°C° 0.1 mm 1 mps 687 mmHg 81%
20:00 +21°C° 0.1 mm 1 mps 687 mmHg 84%
21:00 +20°C° 0.1 mm 1 mps 687 mmHg 87%
22:00 +17°C° 0.1 mm 0 mps 687 mmHg 91%
23:00 +18°C° 0 mm 1 mps 687 mmHg 90%

Tomorrow, 10 August, Monday

Time Temperature Precipitation Wind Pressure Humidity
00:00 +18°C° 0 mm 1 mps 687 mmHg 89%
01:00 +18°C° 0 mm 1 mps 686 mmHg 88%
02:00 +18°C° 0 mm 1 mps 686 mmHg 88%
03:00 +18°C° 0 mm 1 mps 686 mmHg 88%
04:00 +18°C° 0 mm 1 mps 686 mmHg 88%
05:00 +19°C° 0 mm 1 mps 686 mmHg 84%
06:00 +21°C° 0 mm 1 mps 686 mmHg 81%
07:00 +22°C° 0 mm 1 mps 686 mmHg 77%
08:00 +24°C° 0 mm 1 mps 687 mmHg 68%
09:00 +27°C° 0 mm 1 mps 687 mmHg 59%
10:00 +29°C° 0 mm 1 mps 688 mmHg 50%
11:00 +30°C° 0.1 mm 1 mps 688 mmHg 46%
12:00 +30°C° 0.1 mm 1 mps 687 mmHg 42%
13:00 +31°C° 0.1 mm 1 mps 687 mmHg 38%
14:00 +30°C° 0.3 mm 2 mps 687 mmHg 41%
15:00 +30°C° 0.3 mm 2 mps 687 mmHg 44%
16:00 +29°C° 0.3 mm 2 mps 687 mmHg 47%
17:00 +27°C° 0.8 mm 1 mps 686 mmHg 59%
18:00 +25°C° 0.8 mm 1 mps 686 mmHg 72%
19:00 +21°C° 0.8 mm 0 mps 686 mmHg 85%
20:00 +20°C° 0.2 mm 0 mps 686 mmHg 85%
21:00 +19°C° 0.2 mm 0 mps 686 mmHg 86%
22:00 +20°C° 0.2 mm 1 mps 686 mmHg 87%
23:00 +19°C° 0 mm 1 mps 686 mmHg 87%

Day after tomorrow, 11 August, Tuesday

Time Temperature Precipitation Wind Pressure Humidity
00:00 +19°C° 0 mm 1 mps 686 mmHg 87%
01:00 +19°C° 0 mm 1 mps 686 mmHg 87%
02:00 +18°C° 0 mm 1 mps 686 mmHg 86%
03:00 +18°C° 0 mm 1 mps 686 mmHg 86%
04:00 +18°C° 0 mm 1 mps 686 mmHg 86%
05:00 +19°C° 0 mm 1 mps 686 mmHg 83%
06:00 +21°C° 0 mm 1 mps 686 mmHg 80%
07:00 +22°C° 0 mm 1 mps 686 mmHg 77%
08:00 +24°C° 0.2 mm 1 mps 687 mmHg 68%
09:00 +27°C° 0.2 mm 1 mps 687 mmHg 59%
10:00 +29°C° 0.2 mm 1 mps 688 mmHg 50%
11:00 +29°C° 0.4 mm 1 mps 688 mmHg 48%
12:00 +30°C° 0.4 mm 1 mps 688 mmHg 47%
13:00 +30°C° 0.4 mm 1 mps 688 mmHg 45%
14:00 +29°C° 1.4 mm 1 mps 687 mmHg 56%
15:00 +27°C° 1.4 mm 1 mps 687 mmHg 67%
16:00 +25°C° 1.4 mm 1 mps 686 mmHg 78%
17:00 +24°C° 2 mm 1 mps 686 mmHg 82%
18:00 +22°C° 2 mm 1 mps 686 mmHg 87%
19:00 +20°C° 2 mm 1 mps 686 mmHg 92%
20:00 +20°C° 0.1 mm 1 mps 686 mmHg 91%
21:00 +19°C° 0.1 mm 1 mps 686 mmHg 90%
22:00 +19°C° 0.1 mm 1 mps 686 mmHg 89%
23:00 +19°C° 0 mm 1 mps 686 mmHg 88%

12 August, Wednesday

Time Temperature Precipitation Wind Pressure Humidity
00:00 +18°C° 0 mm 1 mps 686 mmHg 87%
01:00 +18°C° 0 mm 1 mps 686 mmHg 86%
02:00 +18°C° 0 mm 1 mps 686 mmHg 86%
03:00 +18°C° 0 mm 1 mps 685 mmHg 85%
04:00 +16°C° 0 mm 1 mps 685 mmHg 85%
05:00 +19°C° 0 mm 1 mps 686 mmHg 81%
06:00 +20°C° 0 mm 1 mps 686 mmHg 78%
07:00 +22°C° 0 mm 1 mps 686 mmHg 74%
08:00 +24°C° 0.1 mm 1 mps 687 mmHg 66%
09:00 +26°C° 0.1 mm 1 mps 687 mmHg 58%
10:00 +27°C° 0.1 mm 0 mps 687 mmHg 50%
11:00 +29°C° 0.5 mm 1 mps 687 mmHg 49%
12:00 +30°C° 0.5 mm 1 mps 687 mmHg 47%
13:00 +30°C° 0.5 mm 1 mps 687 mmHg 46%
14:00 +29°C° 1.6 mm 1 mps 687 mmHg 53%
15:00 +28°C° 1.6 mm 1 mps 686 mmHg 59%
16:00 +27°C° 1.6 mm 1 mps 686 mmHg 66%
17:00 +25°C° 1.4 mm 1 mps 686 mmHg 72%
18:00 +24°C° 1.4 mm 1 mps 686 mmHg 79%
19:00 +20°C° 1.4 mm 0 mps 685 mmHg 85%
20:00 +21°C° 0.1 mm 1 mps 685 mmHg 85%
21:00 +20°C° 0.1 mm 1 mps 685 mmHg 86%
22:00 +19°C° 0.1 mm 1 mps 685 mmHg 87%
23:00 +19°C° 0 mm 1 mps 685 mmHg 86%

13 August, Thursday

Time Temperature Precipitation Wind Pressure Humidity
00:00 +19°C° 0 mm 1 mps 685 mmHg 86%
01:00 +18°C° 0 mm 1 mps 685 mmHg 85%
02:00 +18°C° 0 mm 1 mps 685 mmHg 85%
03:00 +18°C° 0 mm 1 mps 685 mmHg 85%
04:00 +16°C° 0 mm 1 mps 685 mmHg 84%
05:00 +19°C° 0 mm 1 mps 685 mmHg 81%
06:00 +20°C° 0 mm 1 mps 686 mmHg 78%
07:00 +22°C° 0 mm 1 mps 686 mmHg 75%
08:00 +24°C° 0.1 mm 1 mps 686 mmHg 66%
09:00 +26°C° 0.1 mm 1 mps 687 mmHg 58%
10:00 +27°C° 0.1 mm 0 mps 687 mmHg 49%
11:00 +29°C° 0.4 mm 1 mps 687 mmHg 48%
12:00 +29°C° 0.4 mm 1 mps 687 mmHg 47%
13:00 +29°C° 0.4 mm 1 mps 686 mmHg 47%
14:00 +27°C° 1.2 mm 1 mps 686 mmHg 58%
15:00 +25°C° 1.2 mm 1 mps 685 mmHg 69%
16:00 +23°C° 1.2 mm 2 mps 685 mmHg 81%
17:00 +22°C° 2.8 mm 1 mps 685 mmHg 85%
18:00 +21°C° 2.8 mm 1 mps 685 mmHg 89%
19:00 +18°C° 2.8 mm 0 mps 686 mmHg 93%
20:00 +19°C° 0.2 mm 1 mps 686 mmHg 94%
21:00 +19°C° 0.2 mm 1 mps 686 mmHg 94%
22:00 +18°C° 0.2 mm 1 mps 686 mmHg 94%
23:00 +16°C° 0 mm 1 mps 686 mmHg 94%

14 August, Friday

Time Temperature Precipitation Wind Pressure Humidity
00:00 +16°C° 0 mm 1 mps 686 mmHg 94%
01:00 +15°C° 0 mm 1 mps 685 mmHg 94%
02:00 +14°C° 0 mm 0 mps 685 mmHg 94%
03:00 +14°C° 0 mm 0 mps 685 mmHg 94%
04:00 +14°C° 0 mm 0 mps 685 mmHg 94%
05:00 +15°C° 0 mm 0 mps 685 mmHg 92%
06:00 +16°C° 0 mm 0 mps 686 mmHg 90%
07:00 +17°C° 0 mm 0 mps 686 mmHg 88%
08:00 +19°C° 0.4 mm 0 mps 686 mmHg 83%
09:00 +23°C° 0.4 mm 1 mps 686 mmHg 77%
10:00 +24°C° 0.4 mm 1 mps 686 mmHg 72%
11:00 +25°C° 1.3 mm 1 mps 686 mmHg 73%
12:00 +25°C° 1.3 mm 1 mps 686 mmHg 74%
13:00 +25°C° 1.3 mm 1 mps 685 mmHg 75%
14:00 +25°C° 1.4 mm 1 mps 685 mmHg 76%
15:00 +24°C° 1.4 mm 1 mps 685 mmHg 76%
16:00 +24°C° 1.4 mm 1 mps 685 mmHg 77%
17:00 +23°C° 0.6 mm 1 mps 685 mmHg 81%
18:00 +20°C° 0.6 mm 0 mps 685 mmHg 85%
19:00 +19°C° 0.6 mm 0 mps 684 mmHg 89%
20:00 +18°C° 0.1 mm 0 mps 685 mmHg 90%
21:00 +17°C° 0.1 mm 0 mps 685 mmHg 90%
22:00 +18°C° 0.1 mm 1 mps 685 mmHg 91%
23:00 +18°C° 0 mm 1 mps 685 mmHg 91%
Show more